Location: Coleto Creek Park and Reservoir
(28.7196°N, 97.1740°W)
Time: 14:16:21
(UTC-05:00)

Hubble Space Telescope - Visible Passes

Search period start: 20 June 2018 00:00
Search period end: 30 June 2018 00:00
Orbit: 537 x 541 km, 28.5° (Epoch: 19 June)

Date Brightness Start Highest point End Pass type
(mag) Time Alt. Az. Time Alt. Az. Time Alt. Az.
20 Jun 0.9 21:04:30 10° W 21:08:35 62° SSW 21:12:25 11° ESE visible
20 Jun 2.9 22:46:13 10° WSW 22:47:46 18° WSW 22:47:46 18° WSW visible
21 Jun 1.1 20:54:12 10° W 20:58:14 53° SSW 21:02:15 10° ESE visible
21 Jun 2.9 22:36:14 10° WSW 22:37:50 16° SW 22:37:50 16° SW visible
22 Jun 3.0 22:26:27 10° WSW 22:27:56 14° SW 22:27:56 14° SW visible
23 Jun 3.2 22:17:15 10° SW 22:18:04 11° SSW 22:18:04 11° SSW visible
